EW4529 Weather Reports


Display with metric or nautical units.
time (UTC)temp
F
wind
direction
speed
MPH
gust
MPH
rain 1hr
in
rain 24hr
in
rain mn
in
humidity
%
barometer
mb
20260902101316 70 244 0.0 1.0 0.00 0.54 0.00 98 1018.8
20260902100334 70 153 0.0 1.0 0.00 0.54 0.00 98 1018.9
20260902095337 70 158 0.0 0.0 0.00 0.54 0.00 98 1018.9
20260902094315 70 165 0.0 0.0 0.00 0.54 0.00 98 1018.8
20260902093333 70 165 0.0 2.0 0.00 0.54 0.00 98 1018.8
20260902092334 70 139 0.0 2.0 0.00 0.54 0.00 98 1018.5
20260902091314 70 146 0.0 0.0 0.00 0.54 0.00 98 1018.5
20260902090336 70 146 1.0 2.0 0.00 0.54 0.00 98 1018.4
20260902085337 70 104 0.0 3.0 0.00 0.54 0.00 98 1018.3
20260902084315 70 260 0.0 2.0 0.00 0.54 0.00 98 1018.2
20260902083335 70 279 0.0 2.0 0.00 0.54 0.00 98 1018.2
20260902082337 70 117 1.0 3.0 0.00 0.54 0.00 97 1018.1
20260902081316 70 149 1.0 4.0 0.00 0.54 0.00 97 1017.9
20260902080335 71 347 0.0 4.0 0.00 0.54 0.00 97 1018.0
20260902075315 71 107 1.0 4.0 0.00 0.54 0.00 97 1017.8
20260902074320 71 118 1.0 4.0 0.00 0.54 0.00 98 1017.7
20260902073312 72 321 0.0 5.0 0.00 0.54 0.00 98 1017.5
20260902072337 72 157 2.0 9.0 0.00 0.54 0.00 98 1017.4
20260902071316 72 352 0.0 4.0 0.00 0.54 0.00 98 1017.5
20260902070350 72 127 0.0 3.0 0.00 0.54 0.00 98 1017.6
20260902065311 72 352 0.0 4.0 0.00 0.54 0.00 98 1017.6
20260902064316 72 169 0.0 3.0 0.00 0.54 0.00 98 1017.5
20260902063332 72 139 0.0 0.0 0.00 0.54 0.00 98 1017.4
20260902062313 71 155 0.0 2.0 0.00 0.54 0.00 98 1017.4
20260902061358 71 151 0.0 0.0 0.00 0.54 0.00 97 1017.2
20260902060331 71 163 0.0 2.0 0.00 0.54 0.00 97 1017.1
20260902055331 72 1 0.0 0.0 0.00 0.54 0.00 97 1017.0
20260902054358 72 1 0.0 0.0 0.00 0.54 0.00 97 1017.1
20260902053329 72 1 0.0 0.0 0.00 0.54 0.00 97 1017.1
20260902052311 73 1 0.0 0.0 0.00 0.54 0.00 97 1017.3
20260902051338 73 360 0.0 0.0 0.00 0.54 0.00 97 1017.3
20260902050334 73 1 0.0 0.0 0.00 0.54 0.00 97 1017.6
20260902045316 73 360 0.0 0.0 0.00 0.54 0.00 97 1017.3
20260902044323 73 1 0.0 0.0 0.00 0.54 0.00 97 1017.7
20260902043341 73 1 0.0 1.0 0.00 0.54 0.00 97 1017.6
20260902042318 73 140 0.0 0.0 0.00 0.54 0.00 97 1017.6
20260902041324 73 140 0.0 0.0 0.00 0.54 0.00 97 1017.4
20260902040315 73 140 0.0 0.0 0.00 0.54 0.00 97 1017.1
20260902035334 73 140 0.0 0.0 0.00 0.54 0.54 97 1016.9
20260902034333 73 140 0.0 0.0 0.00 0.54 0.54 97 1016.8
20260902033351 73 140 0.0 0.0 0.00 0.54 0.54 97 1016.6
20260902032358 73 140 0.0 0.0 0.00 0.54 0.54 97 1016.7
20260902031337 73 140 0.0 0.0 0.00 0.54 0.54 97 1016.9
20260902030330 73 140 0.0 0.0 0.00 0.54 0.54 97 1016.4
20260902025331 73 140 0.0 0.0 0.00 0.54 0.54 97 1015.8
20260902024311 73 140 0.0 0.0 0.00 0.54 0.54 97 1015.8
20260902023328 73 140 0.0 0.0 0.00 0.54 0.54 96 1016.1
20260902022331 73 140 0.0 0.0 0.00 0.54 0.54 96 1016.3
20260902021329 73 140 0.0 0.0 0.00 0.54 0.54 96 1016.3
20260902020324 73 140 0.0 1.0 0.01 0.54 0.54 96 1016.3
20260902015353 73 124 0.0 2.0 0.01 0.54 0.54 96 1016.5
20260902014334 73 74 0.0 0.0 0.01 0.54 0.54 96 1016.2
20260902013328 73 32 0.0 1.0 0.26 0.54 0.54 96 1015.2
20260902012333 73 107 0.0 1.0 0.44 0.54 0.54 95 1015.2
20260902011319 73 169 1.0 2.0 0.44 0.54 0.54 95 1014.5
20260902010335 73 130 0.0 2.0 0.43 0.53 0.53 94 1014.5
20260902005333 73 10 0.0 2.0 0.53 0.53 0.53 93 1014.2
20260902004331 74 12 0.0 7.0 0.53 0.53 0.53 91 1013.9
20260902003323 75 342 2.0 11.0 0.24 0.24 0.24 89 1014.5
20260902002323 77 109 3.0 7.0 0.10 0.10 0.10 90 1014.4
20260902001330 78 121 0.0 1.0 0.10 0.10 0.10 85 1013.5
20260902000349 80 179 0.0 7.0 0.10 0.10 0.10 82 1013.9
20260901235329 84 325 1.0 3.0 0.00 0.00 0.00 80 1013.7
20260901234323 84 160 0.0 0.0 0.00 0.00 0.00 79 1013.3
20260901233332 85 160 0.0 0.0 0.00 0.00 0.00 78 1013.0
20260901232312 85 160 0.0 0.0 0.00 0.00 0.00 78 1013.3
20260901231337 85 160 0.0 0.0 0.00 0.00 0.00 77 1013.7
20260901230330 86 160 0.0 0.0 0.00 0.00 0.00 75 1013.5
20260901225329 87 160 0.0 0.0 0.00 0.00 0.00 74 1013.5
20260901224329 88 160 0.0 0.0 0.00 0.00 0.00 72 1013.2
20260901223347 89 160 0.0 0.0 0.00 0.00 0.00 70 1013.5
20260901222327 89 159 0.0 1.0 0.00 0.00 0.00 68 1013.4
20260901221356 90 131 0.0 1.0 0.00 0.00 0.00 67 1013.4
20260901220327 91 272 0.0 0.0 0.00 0.00 0.00 64 1013.3
20260901215325 91 79 0.0 3.0 0.00 0.00 0.00 66 1013.4
20260901214332 92 132 0.0 0.0 0.00 0.00 0.00 63 1013.6
20260901213322 93 140 0.0 1.0 0.00 0.00 0.00 61 1013.7
20260901212325 93 149 0.0 3.0 0.00 0.00 0.00 61 1013.5
20260901211331 93 79 0.0 5.0 0.00 0.00 0.00 62 1013.5
20260901210325 93 4 0.0 4.0 0.00 0.00 0.00 62 1013.5
20260901205326 93 356 1.0 5.0 0.00 0.00 0.00 61 1013.5
20260901204332 93 215 2.0 4.0 0.00 0.00 0.00 61 1013.6
20260901203324 93 296 0.0 2.0 0.00 0.00 0.00 62 1013.8
20260901202351 92 142 0.0 4.0 0.00 0.00 0.00 61 1013.8
20260901201335 94 12 1.0 4.0 0.00 0.00 0.00 58 1013.8
20260901200323 94 168 0.0 3.0 0.00 0.00 0.00 60 1013.7
20260901194321 94 18 1.0 5.0 0.00 0.00 0.00 59 1013.9
20260901193311 93 19 0.0 5.0 0.00 0.00 0.00 57 1014.0
20260901192337 93 27 2.0 6.0 0.00 0.00 0.00 59 1014.1
20260901191335 93 268 0.0 6.0 0.00 0.00 0.00 58 1014.2
20260901190327 93 156 1.0 5.0 0.00 0.00 0.00 58 1014.1
20260901185353 93 30 0.0 4.0 0.00 0.00 0.00 58 1014.3
20260901184328 93 235 0.0 3.0 0.00 0.00 0.00 58 1014.4
20260901183320 93 324 1.0 5.0 0.00 0.00 0.00 57 1014.5
20260901182320 92 141 0.0 4.0 0.00 0.00 0.00 59 1014.6
20260901181326 92 160 1.0 3.0 0.00 0.00 0.00 59 1014.6
20260901180344 91 111 0.0 5.0 0.00 0.00 0.00 62 1014.6
20260901175322 90 121 0.0 4.0 0.00 0.00 0.00 65 1014.6
20260901174328 89 153 1.0 4.0 0.00 0.00 0.00 65 1014.8
20260901173320 88 151 1.0 5.0 0.00 0.00 0.00 69 1015.0
20260901172320 87 296 0.0 1.0 0.00 0.00 0.00 74 1015.0
20260901171348 86 115 0.0 3.0 0.00 0.00 0.00 75 1015.2
20260901170347 84 137 0.0 2.0 0.00 0.00 0.00 78 1015.2
20260901165325 83 121 0.0 0.0 0.00 0.00 0.00 81 1015.4
20260901164312 82 121 0.0 0.0 0.00 0.00 0.00 82 1015.8
20260901163330 82 120 0.0 0.0 0.00 0.00 0.00 81 1016.0
20260901162356 83 155 0.0 0.0 0.00 0.00 0.00 81 1016.1
20260901161333 82 155 0.0 1.0 0.00 0.00 0.00 82 1016.2
20260901160331 82 148 0.0 1.0 0.00 0.00 0.00 82 1016.1
20260901155330 82 128 0.0 1.0 0.00 0.00 0.00 82 1015.8
20260901154333 82 122 0.0 0.0 0.00 0.00 0.00 83 1016.0
20260901153324 82 122 0.0 0.0 0.00 0.00 0.00 83 1016.0
20260901152325 82 122 0.0 1.0 0.00 0.00 0.00 81 1016.1
20260901151317 82 13 0.0 1.0 0.00 0.00 0.00 82 1016.2
20260901150337 81 322 0.0 1.0 0.00 0.00 0.00 83 1016.2
20260901145336 81 26 0.0 2.0 0.00 0.00 0.00 82 1016.3
20260901144320 80 91 0.0 2.0 0.00 0.00 0.00 84 1016.2
20260901143312 80 329 0.0 1.0 0.00 0.00 0.00 85 1016.2
20260901142336 80 225 0.0 2.0 0.00 0.00 0.00 86 1016.3
20260901141315 80 338 0.0 0.0 0.00 0.00 0.00 88 1016.1
20260901140333 79 28 0.0 1.0 0.00 0.00 0.00 89 1016.2
20260901135313 78 160 0.0 0.0 0.00 0.00 0.00 89 1016.1
20260901134338 78 160 0.0 0.0 0.00 0.00 0.00 88 1016.0
20260901133330 79 141 0.0 1.0 0.00 0.00 0.00 87 1016.0
20260901132328 79 157 0.0 2.0 0.00 0.00 0.00 88 1016.0
20260901131329 79 317 0.0 0.0 0.00 0.00 0.00 87 1016.1
20260901130401 79 157 0.0 1.0 0.00 0.00 0.00 88 1016.1
20260901125315 79 146 0.0 3.0 0.00 0.00 0.00 88 1016.2
20260901124314 79 117 0.0 1.0 0.00 0.00 0.00 91 1016.1
20260901123331 77 300 0.0 2.0 0.00 0.00 0.00 94 1016.2
20260901122328 76 351 0.0 1.0 0.00 0.00 0.00 96 1016.4
20260901121346 75 137 0.0 1.0 0.00 0.00 0.00 97 1016.3
20260901120317 74 154 0.0 2.0 0.00 0.00 0.00 97 1016.4
20260901115314 73 141 0.0 1.0 0.00 0.00 0.00 97 1016.4
20260901114318 73 106 0.0 0.0 0.00 0.00 0.00 97 1016.5
20260901113316 72 106 0.0 0.0 0.00 0.00 0.00 97 1016.7
20260901112317 72 106 0.0 0.0 0.00 0.00 0.00 97 1016.6
20260901111319 72 106 0.0 1.0 0.00 0.00 0.00 97 1016.4
20260901110317 72 106 0.0 0.0 0.00 0.00 0.00 97 1016.5
20260901105324 72 106 0.0 0.0 0.00 0.00 0.00 97 1016.4
20260901104320 71 106 0.0 0.0 0.00 0.00 0.00 97 1016.4
20260901103341 72 106 0.0 0.0 0.00 0.00 0.00 97 1016.4
20260901102342 72 106 0.0 0.0 0.00 0.00 0.00 97 1016.5